RH
88 83 85 94 92 80 84 90 90 89 91 94 96 87 77 76 79 89 93 92 95 93 94 94 87 85 84 91 93 90 94 91 88 86 84 82 88 96 93 87 91 92 88
77 78 82 88 91 90 89 83 82 84 87 92 93 93 87 92 90 89 91 93 92 92 92 90 86 86 86 96 95 87 76 66 73 83 88 76 90 88 87 87 88 92 94
73 76 80 85 86 83 83 78 79 80 78 82 89 84 83 84 75 84 83 84 83 92 92 90 87 91 96 95 91 82 77 78 76 70 71 92 90 86 86 87 86 96 95
76 79 79 78 84 80 81 75 77 84 82 88 92 84 78 80 88 93 82 82 79 88 93 94 92 96 92 93 92 76 69 70 70 74 84 91 90 79 74 80 97 95 95
81 75 78 76 80 78 75 74 77 78 80 79 81 86 72 67 73 84 82 82 78 79 79 84 72 69 73 82 91 76 73 71 62 56 61 78 89 89 79 80 86 87 93
81 79 77 74 78 78 80 79 77 74 73 74 74 75 78 70 72 71 76 81 81 80 81 80 61 61 61 72 79 75 68 68 65 60 62 65 82 86 88 85 87 95 94
84 86 86 83 82 81 80 76 76 81 78 79 77 79 79 76 85 85 80 73 77 79 80 80 70 60 58 63 75 72 67 67 68 62 63 64 84 81 81 83 90 95 94
89 90 87 87 87 88 85 82 82 76 78 79 78 77 77 81 80 79 77 79 80 80 81 83 76 61 58 58 70 72 69 68 71 68 65 63 67 74 86 80 84 88 87
48 63 74 72 80 82 88 89 85 86 79 77 78 78 76 78 79 78 77 75 79 81 80 79 84 76 72 56 68 61 69 70 70 72 69 68 73 88 90 94 88 91 95
33 33 33 32 34 43 54 77 83 92 85 85 82 83 81 80 80 82 81 80 75 78 81 81 81 86 76 63 57 66 65 74 74 72 72 75 72 88 94 83 82 87 90
36 36 36 35 32 33 33 42 49 50 74 88 86 85 80 83 83 84 84 84 83 82 83 82 82 88 86 72 61 56 66 68 74 74 75 74 67 87 95 93 90 86 87
38 38 38 38 36 34 36 38 38 42 53 78 82 82 87 90 91 90 87 85 85 86 84 84 82 85 89 90 80 64 64 59 63 69 74 72 69 76 91 83 91 93 94
42 39 39 40 41 38 37 38 38 38 54 66 75 74 68 67 71 74 83 87 87 85 84 85 85 85 90 90 84 76 65 57 56 59 62 74 68 66 88 80 92 85 95
40 41 43 43 42 39 35 32 31 31 33 36 39 41 44 44 53 59 52 50 48 59 79 86 86 90 90 91 95 86 80 68 56 52 55 71 72 66 81 91 87 88 87
40 43 42 42 40 33 26 25 24 23 23 24 28 31 34 37 42 52 55 53 51 47 44 43 79 99 97 94 93 99 93 84 68 57 49 59 71 69 69 88 90 94 91
42 43 41 36 32 28 26 27 28 28 27 26 23 23 26 32 35 38 43 48 56 54 51 50 48 64 99 100 99 99 100 95 70 57 49 45 63 68 68 72 86 92 92
42 36 34 32 32 31 32 31 30 30 29 28 28 29 26 26 31 38 41 46 60 64 59 58 58 51 73 97 99 100 100 98 88 79 43 39 50 63 67 69 77 93 92
38 37 37 36 35 35 34 33 32 32 32 34 36 39 42 40 37 39 45 48 55 70 68 66 72 71 73 79 87 89 99 98 86 74 55 42 60 69 69 76 79 94 92
38 38 39 39 38 37 36 34 34 36 39 42 44 46 48 51 51 48 45 50 60 64 74 76 79 79 94 95 96 97 88 96 93 82 63 45 45 78 65 68 82 85 90
38 40 41 42 40 40 39 38 39 42 45 51 54 56 57 58 59 58 54 51 53 71 80 87 91 88 99 98 96 89 97 96 81 82 72 59 51 68 87 81 78 85 92
42 43 43 39 42 41 40 44 46 53 53 54 58 60 62 64 68 67 66 64 64 61 81 100 99 96 99 98 92 88 94 98 100 90 78 76 98 74 75 80 83 80 91
42 40 43 46 48 48 50 55 62 63 63 65 66 66 68 70 70 70 69 67 65 70 81 96 99 98 98 96 88 92 89 92 96 94 94 98 98 98 96 99 88 83 82
41 48 50 51 51 52 54 56 59 60 64 69 73 71 70 73 74 75 70 67 66 70 86 92 88 99 97 82 97 77 90 80 91 98 99 100 94 99 92 99 100 97 90
51 56 55 55 55 56 61 66 75 83 91 84 81 79 75 71 75 80 81 78 76 68 71 81 81 82 97 98 93 88 86 82 79 81 98 99 98 100 99 99 99 100 100
59 60 59 58 58 64 71 76 78 81 81 77 72 72 69 66 64 68 75 76 83 84 77 74 73 93 87 94 99 99 100 98 86 88 82 87 100 97 99 100 98 93 99
65 65 63 62 66 72 74 74 76 77 77 82 84 89 88 76 67 63 65 69 70 74 87 82 78 85 98 92 90 96 87 89 93 89 92 83 87 94 98 99 98 100 100
Wind_Speed
11 15 13 13 13 12 12 12 14 15 14 14 13 12 12 12 13 11 10 9 9 10 10 10 10 11 11 9 10 10 11 10 10 12 10 11 10 13 14 17 18 17 19
17 16 14 14 15 13 12 12 12 13 13 13 12 11 11 11 11 10 8 7 10 10 9 10 10 10 11 11 11 10 9 10 10 10 10 10 10 11 14 15 16 16 17
20 18 14 14 14 13 13 13 13 12 11 11 10 10 10 10 9 8 7 6 8 10 9 10 10 10 10 11 11 11 10 9 9 9 8 7 6 11 14 15 16 17 16
18 17 14 13 13 12 12 12 12 11 10 11 10 9 9 10 9 8 6 6 8 10 9 10 10 9 9 10 10 9 9 9 9 9 7 5 5 8 12 15 15 15 14
18 16 13 12 12 12 12 11 10 10 9 9 9 9 8 8 8 7 6 7 8 8 8 7 8 8 9 10 9 8 7 7 7 8 8 6 4 6 10 14 16 13 13
16 12 12 10 8 8 8 9 9 9 9 8 8 7 6 6 6 6 6 6 8 8 7 8 6 7 9 9 9 7 5 6 6 6 7 7 5 7 10 13 14 13 13
16 15 12 10 9 7 6 5 8 8 8 8 7 5 5 6 6 4 5 6 7 7 7 8 6 7 8 9 9 8 5 5 8 5 5 6 5 5 8 10 10 13 12
14 13 10 9 8 8 8 9 9 7 8 8 6 4 4 4 4 3 3 4 7 8 7 8 9 8 8 9 9 9 7 6 7 5 5 5 5 3 5 8 10 12 11
14 10 8 7 5 4 4 6 10 10 8 7 6 4 3 4 3 3 2 3 5 7 7 8 9 10 8 9 10 10 10 7 5 6 6 4 4 1 3 7 8 9 10
13 12 12 9 8 7 7 4 6 3 10 7 7 4 5 4 3 4 4 4 5 7 8 9 11 12 12 10 10 10 11 10 8 6 7 6 3 2 4 7 9 11 10
11 10 9 8 8 8 7 7 7 10 6 2 3 3 3 5 5 6 5 5 6 7 8 10 11 13 13 11 10 11 12 12 12 10 7 9 6 4 7 10 11 10 12
7 7 6 6 6 8 9 9 9 9 8 7 5 2 1 3 3 4 5 6 7 8 9 9 10 12 14 12 12 12 13 14 14 14 11 9 10 6 9 11 11 11 12
6 7 8 8 9 10 11 11 11 11 11 9 7 5 3 2 1 1 2 3 6 7 9 11 10 12 15 17 16 15 14 14 15 16 15 12 12 10 9 12 13 13 13
9 10 11 11 12 13 14 14 13 12 11 9 7 5 3 2 2 2 3 4 4 5 5 8 11 12 15 18 19 18 16 16 16 16 17 16 13 13 12 13 16 15 15
13 14 15 15 17 18 18 17 15 15 13 11 7 5 3 3 3 4 5 4 4 5 7 7 7 9 13 17 19 20 19 18 17 17 17 18 16 14 14 12 18 17 15
16 17 17 18 17 15 14 13 13 12 12 11 9 7 6 5 5 6 7 7 7 7 6 7 8 8 7 11 14 19 21 19 16 15 17 20 20 16 17 12 17 18 17
17 17 15 14 12 10 10 11 11 11 11 11 10 9 8 8 8 8 8 8 8 8 8 7 7 6 8 8 9 12 16 20 24 19 18 17 20 17 19 18 19 22 19
16 14 11 9 8 7 7 8 10 11 12 12 11 10 9 9 9 9 10 10 10 11 10 9 8 7 7 8 11 13 13 16 19 18 17 18 18 17 20 20 19 24 22
14 12 9 7 5 5 6 8 10 11 12 12 11 11 11 11 11 11 11 11 11 12 13 11 10 8 6 7 9 11 15 16 18 19 21 22 23 21 22 25 23 25 28
12 9 7 5 5 5 7 9 10 11 13 12 11 12 12 12 11 12 12 12 12 12 14 13 13 10 8 8 8 12 15 15 17 19 20 19 22 23 23 26 26 27 26
11 9 8 5 6 8 13 17 18 19 19 15 13 12 12 11 10 11 11 11 10 13 14 13 14 12 10 7 6 9 13 13 15 16 17 17 18 23 25 24 29 28 30
10 10 8 6 7 10 12 13 12 17 13 14 12 12 11 10 11 11 11 11 11 12 12 13 15 10 10 14 7 4 3 6 12 15 16 19 22 24 23 21 24 31 33
10 8 6 6 8 10 11 13 14 14 16 14 16 16 14 13 13 13 13 13 14 12 12 12 16 18 14 17 17 9 2 6 2 8 13 15 16 19 22 20 22 30 36
9 7 6 6 8 9 10 12 13 12 11 15 18 18 17 15 15 13 13 14 15 15 15 14 16 20 20 14 17 23 18 3 3 2 5 11 13 15 19 19 19 26 32
9 6 5 6 7 9 10 11 12 13 14 17 18 20 20 19 17 17 16 17 17 17 17 17 17 18 22 22 19 12 16 11 9 3 2 1 8 16 15 13 16 26 27
9 5 4 6 8 9 11 12 13 14 17 18 19 19 19 22 22 21 21 19 18 17 18 20 20 20 18 22 25 23 18 10 10 8 2 4 5 7 12 13 15 19 18
Wind_Direction
165 159 161 154 155 147 141 129 128 126 126 123 122 122 126 127 131 133 135 136 134 129 120 108 106 103 100 100 105 107 108 109 110 108 110 112 110 118 112 116 108 107 108
164 159 161 156 156 152 147 138 133 131 129 130 130 129 132 131 136 138 141 144 144 137 125 116 115 111 109 104 110 114 106 110 109 109 109 117 122 127 130 125 118 117 112
162 156 160 157 156 153 156 151 143 138 131 130 133 133 132 131 136 143 147 145 162 149 136 127 123 122 118 119 114 107 104 104 105 109 114 111 132 140 138 136 129 120 117
160 156 155 156 156 154 159 150 148 144 148 141 136 135 135 143 141 154 152 152 158 152 151 136 136 136 132 130 129 111 107 106 101 101 108 114 108 151 153 145 134 123 120
170 162 156 155 154 156 153 153 150 153 156 152 154 147 141 146 154 149 152 150 159 165 165 165 157 147 143 142 146 134 119 119 109 99 93 95 132 135 152 142 130 135 128
161 158 147 145 159 163 161 161 161 164 166 160 158 161 155 152 154 154 162 161 167 172 176 179 172 167 157 156 157 153 139 145 132 103 92 80 82 175 157 145 149 141 136
144 145 145 148 154 158 169 176 182 178 172 162 155 157 161 162 171 176 176 183 186 188 187 193 197 184 175 169 170 170 159 148 156 125 99 83 75 102 177 168 162 151 146
135 134 139 148 164 180 192 196 202 195 188 179 177 177 194 189 192 207 210 214 209 206 200 203 201 198 189 189 185 184 179 168 173 154 133 100 74 99 141 146 157 160 151
103 111 116 116 126 111 202 231 213 201 196 201 194 199 211 200 201 204 209 224 230 224 228 220 219 208 211 204 200 197 195 195 186 188 174 146 99 133 172 161 163 166 165
100 94 92 95 91 102 79 81 80 131 184 187 192 210 220 219 224 237 233 242 250 250 250 253 240 223 219 219 211 209 207 207 211 204 205 196 156 202 197 178 170 174 173
91 89 89 89 89 91 99 95 81 74 98 131 184 197 202 226 228 237 243 251 256 263 261 261 253 233 227 227 224 218 219 218 218 222 226 221 202 218 196 171 164 169 163
84 74 75 92 102 93 90 91 85 77 85 93 88 124 220 244 250 258 259 267 267 266 266 266 259 242 232 224 225 225 226 228 226 226 228 221 219 221 216 191 175 175 165
95 84 82 91 99 99 95 89 87 85 86 88 86 81 78 66 56 341 305 290 283 279 276 270 261 250 236 233 232 233 234 235 233 231 228 226 228 230 226 222 192 192 184
105 94 95 98 105 102 97 88 82 79 76 74 69 68 59 27 328 332 342 344 344 334 297 270 260 255 246 245 238 236 239 240 239 234 230 227 231 232 230 228 205 196 195
110 106 102 104 104 99 91 83 75 67 60 53 47 30 357 327 321 300 290 296 311 317 319 317 289 268 252 246 245 241 239 242 241 240 234 228 229 234 230 237 214 193 196
119 110 107 105 102 96 83 69 58 45 37 25 18 10 352 331 308 292 284 277 278 290 302 305 308 275 268 260 257 249 241 237 235 238 236 233 226 232 226 242 216 202 204
124 116 108 104 100 87 67 50 36 25 14 6 0 349 334 320 305 298 289 278 269 269 272 284 301 303 263 255 260 255 250 243 238 228 241 233 232 228 226 229 220 203 199
134 130 119 110 95 73 52 33 18 8 2 356 351 345 335 320 307 299 288 284 270 261 259 264 269 269 258 251 251 259 251 241 239 236 236 234 231 230 225 227 229 209 199
145 137 130 115 84 52 25 7 357 355 352 349 345 340 333 326 315 305 295 288 280 267 261 258 253 256 251 257 254 252 252 247 239 233 237 238 237 238 230 234 227 218 204
147 140 135 118 85 37 4 350 347 349 346 346 344 337 329 322 316 306 300 295 283 272 261 256 253 252 236 238 251 258 259 253 241 241 243 249 246 240 242 237 229 222 222
149 141 131 112 50 5 358 358 353 350 346 343 343 338 328 319 319 317 311 304 300 278 267 259 252 247 238 234 232 257 261 250 245 244 243 247 252 248 248 247 237 230 214
143 127 111 72 30 11 7 3 353 342 344 344 347 342 338 326 317 315 316 318 310 296 276 261 252 243 235 222 210 224 263 237 241 246 254 259 265 259 251 246 236 232 221
135 119 88 46 20 6 358 350 344 343 342 347 342 340 335 325 317 313 292 299 300 294 276 268 258 252 243 240 217 219 195 236 216 243 238 238 248 247 245 245 246 243 227
133 114 78 37 17 7 357 357 356 348 336 333 330 327 325 323 319 315 309 298 291 284 276 268 258 256 250 242 236 230 240 215 219 242 232 238 238 247 246 244 242 232 219
133 108 67 32 16 11 9 2 352 341 332 326 326 322 319 316 313 310 307 305 299 285 274 270 264 253 250 245 229 223 215 222 222 216 279 231 251 243 242 239 242 244 254
136 113 42 19 13 7 359 352 346 336 330 327 326 323 320 315 312 309 307 303 295 290 281 270 265 260 255 253 247 242 227 203 208 213 205 215 230 239 232 232 232 227 222